Погода в Лейк Озарке

США     38°11′55″N   92°38′17″W
темп.,
°C
ветер,
м/с
пор.,
м/с
влажн.,
%
обл.,
%
осадки,
мм/ч
давл.,
гПа
погр.,
м
31 июля, сб
сб3101:00+22в2698100 5.8 1017129
04:00+22юв239967 0.1 101569
07:00+23юз2597100 0.1 1015128
10:00+27з51287100 3.1 1015544
13:00+29зюз3569100 3.8 1014718
16:00+26с4790100 2.6 1014265
19:00+26с3782100 4.4 1014638
22:00+23ссв389399 1.1 1015415
1 августа, вс
вс101:00+20ссв3694100 1.2 1017409
04:00+18ссв1297100 0.0 101725
07:00+18ссв139441 0.0 101873
10:00+26с12638 0.0 1018612
13:00+30с24410 0.0 10172421
16:00+30с55403 0.0 10162238
19:00+26с46640 0.0 1017601
22:00+21св310830 0.0 1018297
2 августа, пн
пн201:00+18св27940 0.0 1019150
04:00+17св24970 0.0 101982
07:00+17св24950 0.0 1019112
10:00+24всв23640 0.0 1019787
13:00+27ссв43450 0.1 10181621
16:00+28ссв53440 0.0 10172205
19:00+24ссв45645 0.0 1017713
22:00+19св268496 0.0 1019119
3 августа, вт
вт301:00+17всв11910 0.0 101811
04:00+15вюв11940 0.0 101815
07:00+16в1290100 0.0 101949
10:00+23в225723 0.0 1019682
13:00+27св324695 0.0 10182068
16:00+27ссв4345100 0.0 10171641
19:00+23св3667100 0.0 1017269
22:00+18всв24815 0.0 101882
4 августа, ср
ср401:00+16в23860 0.0 101873
04:00+15вюв11930 0.0 101911
07:00+16вюв12930 0.0 101948
10:00+24вюв22590 0.0 1020677
13:00+29всв22400 0.0 10192062
16:00+29св433859 0.0 10172355
19:00+25св37580 0.0 1017384
22:00+19всв26795 0.0 1018109